Weather in Vorozhba

Ukraine / Sumi District     51°10′33″N   34°13′37″E
temp.,
°C
wind,
m/s
gust,
m/s
humid.,
%
clouds,
%
prec.,
mm/h
press.,
hPa
HPBL,
m
27 october, wed
wed2700:00+3ssw4126320 0.0 1028264
03:00+2ssw5126526 0.0 1027258
06:00+2ssw513706 0.0 1025288
09:00+3ssw613730 0.0 1024402
12:00+8sw710670 0.0 1023713
15:00+10wsw686110 0.0 1022978
18:00+8wsw3865100 0.0 1023323
21:00+7w377192 0.0 1023213
28 october, thu
thu2800:00+4w368647 0.0 1023100
03:00+4wsw3693100 0.0 1023123
06:00+5wsw41090100 0.0 1022232
09:00+6sw61387100 0.8 1020387
12:00+8w51181100 0.1 1020521
15:00+8w51088100 0.5 1020451
18:00+9wnw41088100 0.1 1021382
21:00+8w369378 0.1 1022171
29 october, fri
fri2900:00+6nw38966 0.0 1024173
03:00+5n36925 0.0 1025100
06:00+4nne38935 0.0 1027145
09:00+5ne26861 0.0 1029200
12:00+10e336733 0.0 1030762
15:00+11e22600 0.0 1030861
18:00+7e33750 0.0 103125
21:00+5se33841 0.0 103240
30 october, sat
sat3000:00+5se34870 0.0 103253
03:00+4sse33900 0.0 103336
06:00+3sse22915 0.0 103330
09:00+5sse25875 0.0 1034130
12:00+10sse34645 0.0 1033456
15:00+12s34560 0.0 1032683
18:00+8sse33715 0.0 103341
21:00+6sse34725 0.0 103347
31 october, sun
sun3100:00+5sse34700 0.0 103343
03:00+4sse33760 0.0 103436
05:00+3sse33811 0.0 103333
08:00+5se36800 0.0 1033143
11:00+10sse46560 0.0 1032498
14:00+12sse45500 0.0 1030691
17:00+8se34670 0.0 102960
20:00+6se38760 0.0 1029139